When you browse on this site, cookies collect data to enhance your experience and personalize the content and advertising you see.
Visit our Privacy Policy to learn more. By continuing to use the site, you agree to this use of cookies and data.
  • In Österreich
  • Länderverzeichnis
  • Für 7 Tage
  • Wassertemperatur
  • Wetterkarte
  • News
  • Widgets
  • user-avatar
    Anmelden

    Stündliche Wetter Ochistka

    Heute, 22 Februar, Samstag

    Zeit Temperatur Niederschläge Wind Luftdruck Luftfeuchtigkeit
    00:00 0°C° 0 mm 3 m/S 748 mmHg 89%
    01:00 0°C° 0 mm 3 m/S 748 mmHg 88%
    02:00 -1°C° 0 mm 3 m/S 748 mmHg 87%
    03:00 -1°C° 0 mm 3 m/S 748 mmHg 87%
    04:00 -2°C° 0 mm 4 m/S 748 mmHg 87%
    05:00 -2°C° 0 mm 4 m/S 748 mmHg 87%
    06:00 -1°C° 0 mm 4 m/S 748 mmHg 88%
    07:00 -1°C° 0 mm 4 m/S 748 mmHg 88%
    08:00 -1°C° 0 mm 4 m/S 748 mmHg 89%
    09:00 -1°C° 0 mm 5 m/S 748 mmHg 85%
    10:00 0°C° 0 mm 5 m/S 748 mmHg 82%
    11:00 0°C° 0 mm 5 m/S 748 mmHg 78%
    12:00 -1°C° 0 mm 6 m/S 747 mmHg 77%
    13:00 -1°C° 0 mm 6 m/S 747 mmHg 76%
    14:00 +1°C° 0 mm 6 m/S 746 mmHg 75%
    15:00 -1°C° 0 mm 6 m/S 745 mmHg 75%
    16:00 -1°C° 0 mm 6 m/S 744 mmHg 75%
    17:00 -1°C° 0 mm 7 m/S 743 mmHg 76%
    18:00 -1°C° 0.2 mm 7 m/S 742 mmHg 80%
    19:00 -1°C° 0.2 mm 8 m/S 741 mmHg 85%
    20:00 -3°C° 0.2 mm 9 m/S 740 mmHg 90%
    21:00 -3°C° 0.9 mm 9 m/S 738 mmHg 92%
    22:00 -3°C° 0.9 mm 9 m/S 737 mmHg 93%
    23:00 -3°C° 0.9 mm 9 m/S 736 mmHg 95%

    Morgen, 23 Februar, Sonntag

    Zeit Temperatur Niederschläge Wind Luftdruck Luftfeuchtigkeit
    00:00 -1°C° 1 mm 9 m/S 735 mmHg 95%
    01:00 -1°C° 1 mm 8 m/S 734 mmHg 95%
    02:00 -1°C° 1 mm 8 m/S 733 mmHg 95%
    03:00 -1°C° 0.7 mm 7 m/S 733 mmHg 93%
    04:00 0°C° 0.7 mm 7 m/S 732 mmHg 92%
    05:00 +1°C° 0.7 mm 6 m/S 731 mmHg 90%
    06:00 +1°C° 0.2 mm 6 m/S 731 mmHg 87%
    07:00 0°C° 0.2 mm 5 m/S 731 mmHg 84%
    08:00 0°C° 0.2 mm 5 m/S 731 mmHg 81%
    09:00 0°C° 0 mm 5 m/S 731 mmHg 77%
    10:00 +1°C° 0 mm 6 m/S 731 mmHg 73%
    11:00 +1°C° 0 mm 6 m/S 731 mmHg 69%
    12:00 +1°C° 0.1 mm 6 m/S 731 mmHg 68%
    13:00 +1°C° 0.1 mm 6 m/S 731 mmHg 67%
    14:00 +1°C° 0.1 mm 6 m/S 731 mmHg 67%
    15:00 +1°C° 0 mm 6 m/S 731 mmHg 73%
    16:00 -1°C° 0 mm 6 m/S 730 mmHg 80%
    17:00 -1°C° 0 mm 6 m/S 730 mmHg 87%
    18:00 -1°C° 0.1 mm 6 m/S 730 mmHg 87%
    19:00 -2°C° 0.1 mm 6 m/S 730 mmHg 87%
    20:00 -1°C° 0.1 mm 5 m/S 730 mmHg 86%
    21:00 -1°C° 0 mm 5 m/S 729 mmHg 85%
    22:00 -1°C° 0 mm 5 m/S 729 mmHg 84%
    23:00 -1°C° 0 mm 5 m/S 729 mmHg 83%

    übermorgen, 24 Februar, Montag

    Zeit Temperatur Niederschläge Wind Luftdruck Luftfeuchtigkeit
    00:00 -1°C° 0 mm 4 m/S 729 mmHg 85%
    01:00 -2°C° 0 mm 4 m/S 729 mmHg 87%
    02:00 -2°C° 0 mm 4 m/S 729 mmHg 89%
    03:00 -2°C° 0 mm 4 m/S 729 mmHg 89%
    04:00 -2°C° 0 mm 4 m/S 728 mmHg 89%
    05:00 -2°C° 0 mm 4 m/S 728 mmHg 89%
    06:00 -2°C° 0.1 mm 4 m/S 729 mmHg 89%
    07:00 -2°C° 0.1 mm 4 m/S 729 mmHg 88%
    08:00 -1°C° 0.1 mm 4 m/S 730 mmHg 87%
    09:00 -1°C° 0.1 mm 4 m/S 730 mmHg 82%
    10:00 -1°C° 0.1 mm 5 m/S 731 mmHg 77%
    11:00 -1°C° 0.1 mm 6 m/S 731 mmHg 71%
    12:00 -1°C° 0 mm 6 m/S 732 mmHg 66%
    13:00 -1°C° 0 mm 6 m/S 733 mmHg 60%
    14:00 -1°C° 0 mm 6 m/S 734 mmHg 54%
    15:00 -1°C° 0 mm 5 m/S 734 mmHg 58%
    16:00 -1°C° 0 mm 4 m/S 735 mmHg 61%
    17:00 -1°C° 0 mm 3 m/S 736 mmHg 64%
    18:00 -1°C° 0 mm 3 m/S 736 mmHg 67%
    19:00 -2°C° 0 mm 3 m/S 737 mmHg 70%
    20:00 -2°C° 0 mm 3 m/S 737 mmHg 73%
    21:00 -2°C° 0 mm 3 m/S 738 mmHg 73%
    22:00 -2°C° 0 mm 3 m/S 738 mmHg 74%
    23:00 -2°C° 0 mm 3 m/S 738 mmHg 74%

    25 Februar, Dienstag

    Zeit Temperatur Niederschläge Wind Luftdruck Luftfeuchtigkeit
    00:00 -2°C° 0 mm 3 m/S 738 mmHg 76%
    01:00 -2°C° 0 mm 2 m/S 738 mmHg 77%
    02:00 -2°C° 0 mm 2 m/S 738 mmHg 79%
    03:00 -3°C° 0 mm 2 m/S 737 mmHg 80%
    04:00 -3°C° 0 mm 2 m/S 737 mmHg 81%
    05:00 -3°C° 0 mm 2 m/S 736 mmHg 82%
    06:00 -3°C° 0.1 mm 2 m/S 736 mmHg 85%
    07:00 -2°C° 0.1 mm 3 m/S 736 mmHg 88%
    08:00 -2°C° 0.1 mm 3 m/S 736 mmHg 91%
    09:00 -1°C° 0.1 mm 3 m/S 735 mmHg 90%
    10:00 -1°C° 0.1 mm 3 m/S 734 mmHg 89%
    11:00 -1°C° 0.1 mm 4 m/S 734 mmHg 87%
    12:00 -1°C° 0.1 mm 4 m/S 733 mmHg 89%
    13:00 -1°C° 0.1 mm 4 m/S 733 mmHg 91%
    14:00 -1°C° 0.1 mm 4 m/S 732 mmHg 93%
    15:00 -1°C° 0.3 mm 5 m/S 731 mmHg 93%
    16:00 -1°C° 0.3 mm 5 m/S 730 mmHg 93%
    17:00 -1°C° 0.3 mm 5 m/S 729 mmHg 94%
    18:00 -1°C° 0.3 mm 5 m/S 729 mmHg 94%
    19:00 0°C° 0.3 mm 4 m/S 729 mmHg 95%
    20:00 +1°C° 0.3 mm 4 m/S 728 mmHg 95%
    21:00 0°C° 0.2 mm 4 m/S 728 mmHg 94%
    22:00 0°C° 0.2 mm 4 m/S 728 mmHg 92%
    23:00 0°C° 0.2 mm 4 m/S 728 mmHg 91%

    26 Februar, Mittwoch

    Zeit Temperatur Niederschläge Wind Luftdruck Luftfeuchtigkeit
    00:00 -1°C° 0 mm 4 m/S 728 mmHg 91%
    01:00 -1°C° 0 mm 4 m/S 728 mmHg 92%
    02:00 -1°C° 0 mm 3 m/S 728 mmHg 93%
    03:00 -1°C° 0 mm 3 m/S 728 mmHg 92%
    04:00 -1°C° 0 mm 3 m/S 728 mmHg 92%
    05:00 -1°C° 0 mm 3 m/S 728 mmHg 92%
    06:00 -1°C° 0 mm 3 m/S 729 mmHg 91%
    07:00 -1°C° 0 mm 3 m/S 729 mmHg 91%
    08:00 -1°C° 0 mm 3 m/S 729 mmHg 90%
    09:00 0°C° 0 mm 3 m/S 729 mmHg 85%
    10:00 0°C° 0 mm 4 m/S 729 mmHg 80%
    11:00 +1°C° 0 mm 4 m/S 730 mmHg 75%
    12:00 +1°C° 0 mm 4 m/S 730 mmHg 73%
    13:00 +3°C° 0 mm 4 m/S 730 mmHg 71%
    14:00 +3°C° 0 mm 4 m/S 730 mmHg 69%
    15:00 +2°C° 0 mm 3 m/S 730 mmHg 74%
    16:00 +1°C° 0 mm 3 m/S 731 mmHg 79%
    17:00 +1°C° 0 mm 2 m/S 731 mmHg 84%
    18:00 +1°C° 0 mm 2 m/S 731 mmHg 85%
    19:00 -1°C° 0 mm 2 m/S 732 mmHg 87%
    20:00 -1°C° 0 mm 2 m/S 732 mmHg 89%
    21:00 -1°C° 0 mm 2 m/S 733 mmHg 89%
    22:00 +1°C° 0 mm 1 m/S 733 mmHg 88%
    23:00 +1°C° 0 mm 1 m/S 734 mmHg 88%

    27 Februar, Donnerstag

    Zeit Temperatur Niederschläge Wind Luftdruck Luftfeuchtigkeit
    00:00 0°C° 0 mm 1 m/S 734 mmHg 88%
    01:00 0°C° 0 mm 1 m/S 734 mmHg 89%
    02:00 0°C° 0 mm 1 m/S 734 mmHg 89%
    03:00 0°C° 0 mm 1 m/S 735 mmHg 89%
    04:00 0°C° 0 mm 1 m/S 735 mmHg 88%
    05:00 -1°C° 0 mm 1 m/S 735 mmHg 88%
    06:00 0°C° 0 mm 1 m/S 735 mmHg 87%
    07:00 0°C° 0 mm 1 m/S 736 mmHg 85%
    08:00 0°C° 0 mm 1 m/S 736 mmHg 83%
    09:00 +1°C° 0 mm 0 m/S 736 mmHg 78%
    10:00 +2°C° 0 mm 0 m/S 737 mmHg 73%
    11:00 +3°C° 0 mm 0 m/S 737 mmHg 67%
    12:00 +3°C° 0 mm 0 m/S 737 mmHg 66%
    13:00 +5°C° 0 mm 1 m/S 738 mmHg 65%
    14:00 +5°C° 0 mm 1 m/S 738 mmHg 64%
    15:00 +4°C° 0 mm 1 m/S 738 mmHg 69%
    16:00 +3°C° 0 mm 1 m/S 738 mmHg 75%
    17:00 +2°C° 0 mm 1 m/S 738 mmHg 80%
    18:00 +2°C° 0 mm 1 m/S 738 mmHg 82%
    19:00 -1°C° 0 mm 2 m/S 739 mmHg 84%
    20:00 -1°C° 0 mm 2 m/S 739 mmHg 86%
    21:00 -2°C° 0 mm 2 m/S 739 mmHg 87%
    22:00 -2°C° 0 mm 2 m/S 739 mmHg 88%
    23:00 -2°C° 0 mm 2 m/S 739 mmHg 88%
    Mehr zeigen